CAPE
273 561 1124 1305 949 225 186 42 120 129 78 29 31 0 23 151 495 341 125 701 833 712 712 753 1128 822 609 884 761 857 1291 1224 1036 1153 1230 1340 1223 1366 1133 1141 937 834 1252 1663 1706 1706 1836 1864 1917
310 800 489 620 433 46 97 72 138 76 62 182 72 9 0 270 256 171 383 565 690 637 470 606 1318 679 766 533 971 1171 1258 968 629 718 1137 1266 949 1099 1179 1011 830 380 1678 1633 1662 1777 1722 1373 1284
309 588 452 696 8 11 145 22 55 40 98 82 89 24 14 367 335 185 329 414 603 834 771 796 855 763 606 473 725 684 752 558 310 281 796 951 757 224 623 1233 1427 1607 1698 1655 1796 1509 1366 1639 1732
467 659 432 733 28 63 125 29 60 77 56 110 89 57 104 296 328 232 333 461 489 460 422 681 702 629 696 707 805 637 595 646 835 164 293 962 760 755 1431 1484 1566 1628 1330 1230 1168 1071 1269 1395 1362
389 520 652 532 451 264 144 94 85 43 61 63 25 4 34 152 362 247 162 322 267 288 328 748 944 847 864 779 588 537 637 857 753 235 191 314 869 1218 866 1435 1300 1271 1171 1098 1305 1418 1437 1275 1592
139 769 322 86 107 69 353 96 36 21 51 46 8 14 24 258 179 167 256 134 433 297 267 246 700 659 628 485 269 181 796 757 911 187 354 867 1016 301 389 1152 1396 1557 1474 1423 1482 1410 1627 1689 1874
372 382 57 94 203 227 399 185 44 30 52 77 22 11 53 131 280 350 370 265 513 485 706 882 206 272 461 364 369 269 204 792 652 339 597 594 361 116 501 1305 1652 1698 1585 1471 1431 1160 1210 1746 1926
583 64 35 48 154 220 247 290 50 14 15 85 52 27 72 77 335 260 222 439 538 582 346 501 536 4 100 596 263 464 585 113 18 11 0 881 176 419 1097 1474 1971 1586 1518 1387 1463 1210 1197 1586 1935
127 81 89 102 0 66 362 63 130 0 16 65 89 59 13 46 183 183 286 576 117 152 295 103 205 203 208 174 282 192 352 189 112 114 364 470 1084 1291 1295 1507 1691 1560 1446 1380 1517 1275 1072 1461 2538
316 159 251 115 62 150 337 4 34 64 13 114 67 31 8 26 134 188 282 521 194 259 566 269 268 298 268 183 235 190 195 201 165 338 442 796 1019 909 1425 1587 1348 1335 1350 1439 1842 2069 1255 190 830
358 734 250 95 100 145 174 426 177 60 69 75 42 0 3 31 62 128 200 248 331 531 951 582 833 857 417 246 145 343 140 47 102 115 299 553 1484 1282 1296 1377 1035 1335 1529 1268 1620 1413 1114 759 847
613 555 292 33 112 90 87 51 170 36 66 34 18 3 15 62 57 71 119 87 199 378 595 1195 529 361 815 288 821 1223 1272 723 543 429 296 378 999 1716 609 734 995 1427 1340 1844 1780 1457 2418 1752 1902
239 421 133 224 47 10 85 225 138 101 44 49 16 28 41 65 45 46 129 164 213 204 491 1050 831 922 745 212 345 1410 1024 919 970 1337 755 1259 1467 1958 2098 1494 1597 1207 1777 1790 479 2415 2542 2620 1588
277 422 106 62 90 4 75 94 254 78 134 73 54 39 47 28 75 76 172 296 275 258 412 300 418 1442 1687 460 820 1379 1052 628 1066 1276 2302 1634 1897 1694 1672 3008 2244 1537 1083 1832 2859 2789 3154 2505 1874
575 498 238 1 11 18 14 20 0 24 402 61 79 74 86 64 63 98 163 330 455 212 285 269 1247 1644 2140 2049 1180 86 722 936 1228 1522 1827 2228 2822 2760 3416 2899 3816 888 1291 2991 2741 2965 2242 2145 1761
477 541 490 150 130 95 0 0 4 76 281 233 102 77 83 98 37 38 174 204 276 401 435 395 712 1674 1960 2385 2472 1210 289 1532 1969 1179 1891 1919 2628 2860 3695 3123 3046 2809 3160 2914 2370 2758 1766 2292 1960
156 172 480 604 459 134 0 1 36 29 191 447 81 81 59 82 75 106 119 250 444 432 672 530 820 1168 499 2417 374 1588 1620 1353 1748 1529 1830 2758 2515 2848 3596 1518 3176 3124 3001 1418 925 2078 2295 2053 2649
0 47 310 671 805 192 21 90 149 2 122 160 313 70 99 89 204 368 182 222 492 566 940 1122 868 1737 2219 1896 2350 1342 1670 2066 2025 2132 1717 2682 2637 2372 3494 3425 3525 3643 3076 2939 3352 3634 3100 3207 2927
0 4 248 699 658 549 447 591 272 82 72 463 235 204 40 180 180 393 280 192 645 925 859 1475 1848 2530 1798 2044 1410 1735 1059 1961 1926 2041 2463 2462 2674 2547 3728 3368 3408 3891 3798 4273 3370 3864 4206 2555 2508
28 8 366 292 158 174 17 412 621 213 222 207 113 332 101 161 473 367 282 585 622 1078 1492 1631 1737 2860 2761 2343 2711 2414 2262 1650 1891 2247 2339 2165 2210 3046 3429 3649 3707 3894 3962 4420 4118 4216 4147 2534 1399
0 43 151 205 25 302 380 190 61 368 656 181 246 423 135 121 107 127 313 649 753 1220 1632 1974 2465 2600 2629 2957 459 2147 1030 2727 2753 2160 2038 1935 2290 2791 3337 3267 3959 3464 1898 2071 3738 4365 4048 3117 3261
12 30 75 72 391 287 9 135 8 3 280 278 310 313 335 151 148 199 225 511 492 1186 1276 2260 2483 2839 2531 3076 2538 3034 2408 2127 2067 2440 2145 1963 2631 3072 2720 2885 2823 2279 446 243 1703 3874 4070 4353 2512
4 0 1 45 260 192 48 48 53 4 163 723 490 370 280 458 186 62 164 269 633 831 1182 1836 2582 2626 2803 3017 3096 2553 1789 1315 1235 1293 2843 2637 3399 3225 3064 2588 2880 3212 1629 1053 3443 3878 3763 3802 3487
0 0 0 7 36 39 113 104 292 434 102 142 581 768 364 49 223 109 65 215 313 464 989 1857 2259 2637 3049 3065 2787 3099 1616 222 824 2400 2392 2752 2481 2956 3464 2670 3015 3524 3474 3427 3393 3386 3874 4243 3911
0 0 191 160 104 92 66 17 289 30 96 244 560 815 657 455 33 259 219 386 217 221 783 1852 2139 2302 2630 2985 2428 2453 2847 2073 3200 1898 2121 1974 2216 2170 3220 3890 3499 2839 3153 3536 3435 4085 3611 3370 3353
0 0 324 14 231 19 105 79 70 131 150 217 629 558 358 379 211 547 162 588 501 322 1285 1793 2251 2332 2571 2598 2990 2318 2809 2731 2564 2815 2876 2514 2227 1865 3218 3204 3446 3257 3098 2986 3696 3380 2910 2767 3256
10 59 27 36 50 176 45 46 0 1 57 272 584 570 352 242 539 418 418 591 914 551 1605 2186 2379 2416 2327 2315 2740 2919 2869 2925 2232 3272 3024 1970 1130 1433 2628 2697 2891 3057 2280 3439 3295 2704 3315 2820 2144
0 2 6 30 31 169 195 93 71 50 1 26 284 389 578 518 431 480 684 1029 752 688 906 2358 2731 2692 2381 2243 1983 2011 2792 2659 2955 2999 3383 1505 2245 649 434 2335 2656 3175 2714 3015 3285 2987 2674 3235 2968
0 0 0 5 34 111 120 60 116 141 6 20 347 96 281 817 714 844 747 1158 1671 910 963 1574 2705 2566 2540 2213 1867 2090 2527 2414 2562 2689 3223 3461 778 84 600 821 2372 2719 3220 3180 3165 3145 2549 1713 2614
0 6 0 21 28 82 234 162 85 74 0 373 410 576 898 784 686 705 608 547 749 2145 1430 1023 424 1932 2119 2245 1711 2007 1716 2346 2406 2345 2184 3126 950 20 621 1976 2552 2977 2875 2934 3212 2945 2225 2125 2252
CIN
-240 -47 -55 -2 -3 -34 -46 -12 -0 -52 -32 -5 -10 -0 -31 -55 -28 -11 -15 -11 -18 -1 -27 -22 -0 -1 -7 -1 -0 -0 -0 -0 -2 -1 -0 -0 -0 -0 -0 -0 -0 -12 -7 -0 -0 -0 -0 -0 -0
-83 -26 -1 -3 -4 -10 -8 -6 -2 -107 -3 -12 -8 -1 -0 -12 -22 -27 -22 -12 -7 -2 -1 -15 -0 -12 -8 -20 -1 -0 -0 -0 -5 -0 -0 -0 -0 -1 -1 -2 -10 -52 -0 -0 -0 -0 -0 -0 -0
-78 -29 -2 -11 -37 -0 -22 -0 -0 -0 -19 -1 -12 -4 -0 -3 -10 -12 -19 -25 -37 -12 -13 -15 -0 -2 -11 -22 -16 -12 -6 -7 -13 -19 -1 -0 -2 -36 -14 -2 -0 -0 -0 -0 -0 -0 -0 -0 -0
-39 -0 -0 -0 -13 -2 -53 -0 -1 -0 -1 -16 -13 -2 -0 -23 -19 -14 -0 -13 -9 -20 -15 -0 -0 -2 -0 -1 -4 -7 -7 -5 -0 -15 -7 -2 -1 -8 -2 -0 -0 -0 -3 -6 -4 -12 -9 -7 -11
-4 -0 -6 -3 -3 -20 -14 -0 -0 -26 -2 -2 -6 -4 -1 -21 -17 -15 -24 -9 -1 -1 -2 -0 -0 -0 -0 -0 -0 -0 -0 -0 -1 -3 -8 -8 -6 -0 -6 -3 -3 -3 -5 -6 -3 -3 -8 -9 -5
-70 -22 -7 -36 -51 -12 -2 -3 -2 -2 -0 -6 -7 -0 -0 -2 -22 -37 -11 -15 -3 -2 -1 -0 -0 -0 -0 -0 -1 -11 -0 -3 -2 -6 -6 -3 -0 -20 -10 -5 -4 -1 -0 -0 -0 -7 -4 -2 -2
-77 -35 -77 -51 -18 -13 -0 -6 -1 -0 -0 -0 -4 -9 -1 -3 -11 -6 -11 -11 -7 -0 -0 -0 -3 -0 -1 -0 -0 -8 -3 -4 -2 -10 -2 -3 -14 -65 -13 -3 -0 -0 -0 -0 -8 -18 -27 -11 -20
-7 -6 -27 -34 -26 -13 -1 -15 -8 -9 -2 -11 -14 -9 -0 -0 -20 -17 -11 -4 -4 -30 -42 -7 -0 -0 -13 -0 -0 -6 -0 -22 -75 -74 -0 -1 -19 -16 -3 -6 -0 -0 -0 -11 -14 -35 -57 -63 -83
-199 -42 -43 -68 -0 -7 -3 -10 -43 -0 -3 -1 -2 -10 -3 -1 -14 -33 -25 -6 -51 -24 -42 -59 -46 -33 -32 -17 -4 -30 -2 -3 -8 -2 -1 -19 -14 -9 -5 -1 -2 -2 -16 -27 -47 -58 -82 -71 -27
-128 -71 -5 -57 -4 -37 -6 -12 -18 -5 -5 -1 -0 -13 -15 -0 -2 -13 -17 -46 -29 -33 -12 -78 -56 -10 -1 -15 -1 -15 -7 -27 -36 -39 -41 -21 -20 -31 -7 -1 -14 -31 -31 -51 -71 -60 -71 -222 -106
-37 -1 -22 -16 -2 -26 -51 -14 -15 -8 -42 -2 -4 -0 -0 -1 -0 -3 -47 -48 -27 -1 -8 -57 -11 -6 -42 -44 -51 -0 -40 -98 -85 -29 -52 -80 -34 -44 -18 -38 -45 -55 -55 -76 -80 -79 -91 -170 -236
-16 -8 -6 -31 -15 -31 -73 -39 -28 -34 -38 -4 -15 -0 -1 -1 -2 -3 -6 -5 -24 -20 -6 -9 -100 -52 -17 -84 -14 -3 -0 -39 -66 -72 -124 -129 -82 -15 -61 -51 -62 -61 -62 -47 -45 -56 -21 -27 -20
-16 -12 -7 -2 -44 -18 -61 -75 -95 -38 -41 -6 -2 -0 -0 -3 -3 -4 -2 -12 -13 -21 -2 -6 -37 -47 -42 -23 -106 -18 -24 -28 -13 -16 -45 -47 -9 -9 -12 -32 -41 -53 -53 -47 -142 -47 -15 -15 -9
-17 -8 -26 -20 -17 -18 -12 -38 -32 -63 -77 -2 -1 -3 -1 -2 -1 -2 -3 -1 -24 -13 -0 -7 -0 -1 -1 -105 -80 -23 -52 -80 -29 -15 -12 -31 -14 -26 -21 -14 -25 -119 -207 -48 -29 -20 -22 -26 -21
-2 -0 -22 -23 -78 -56 -51 -11 -0 -3 -23 -1 -0 -2 -1 -16 -0 -2 -4 -18 -8 -12 -12 -2 -12 -5 -5 -4 -29 -182 -85 -16 -20 -19 -6 -3 -5 -12 -10 -45 -22 -196 -195 -33 -27 -39 -18 -18 -9
-32 -8 -4 -35 -34 -59 -0 -0 -59 -15 -43 -52 -0 -2 -3 -6 -1 -0 -2 -6 -7 -3 -4 -2 -1 -7 -9 -5 -6 -27 -96 -7 -13 -22 -11 -6 -7 -12 -19 -9 -42 -21 -23 -39 -41 -38 -18 -32 -24
-25 -17 -1 -2 -1 -36 -0 -15 -30 -45 -18 -52 -1 -0 -2 -3 -1 -5 -2 -2 -20 -48 -2 -2 -8 -30 -66 -2 -101 -18 -27 -32 -14 -24 -16 -1 -10 -22 -17 -132 -35 -27 -52 -55 -150 -15 -30 -33 -48
-0 -16 -0 -34 -3 -10 -56 -72 -40 -20 -53 -127 -57 -0 -0 -1 -3 -12 -2 -7 -19 -17 -5 -2 -3 -23 -19 -20 -19 -35 -13 -5 -4 -5 -39 -12 -4 -17 -24 -15 -13 -35 -45 -14 -27 -28 -38 -27 -27
-25 -34 -3 -11 -5 -29 -12 -65 -45 -43 -42 -16 -90 -38 -5 -2 -11 -13 -4 -12 -17 -2 -25 -13 -29 -11 -17 -19 -21 -20 -18 -11 -6 -24 -12 -10 -2 -1 -21 -15 -14 -31 -27 -9 -13 -9 -16 -24 -74
-42 -5 -1 -1 -7 -15 -6 -20 -0 -46 -22 -0 -17 -20 -29 -25 -82 -115 -64 -2 -6 -7 -4 -23 -32 -6 -2 -6 -13 -20 -28 -14 -8 -20 -21 -10 -1 -1 -10 -10 -12 -9 -21 -6 -9 -15 -25 -25 -52
-0 -0 -4 -1 -3 -20 -87 -19 -77 -9 -0 -10 -0 -20 -108 -58 -61 -139 -60 -8 -0 -2 -4 -2 -4 -4 -5 -6 -166 -34 -105 -17 -4 -31 -15 -5 -2 -1 -4 -7 -17 -37 -13 -10 -15 -14 -8 -30 -42
-1 -0 -2 -1 -3 -5 -10 -25 -158 -3 -19 -22 -27 -7 -68 -20 -212 -22 -9 -4 -19 -6 -11 -5 -1 -2 -1 -4 -15 -1 -1 -2 -20 -22 -12 -11 -3 -2 -3 -4 -19 -45 -13 -6 -3 -8 -27 -24 -54
-2 -0 -9 -1 -12 -10 -33 -8 -48 -35 -24 -3 -19 -22 -12 -14 -75 -120 -46 -5 -14 -17 -1 -2 -2 -3 -2 -4 -7 -3 -44 -90 -113 -36 -17 -11 -6 -1 -2 -7 -14 -21 -6 -19 -11 -9 -22 -31 -36
-0 -0 -0 -0 -5 -0 -0 -1 -18 -15 -60 -69 -3 -7 -42 -34 -30 -29 -9 -92 -2 -6 -15 -2 -6 -3 -2 -0 -5 -5 -43 -109 -76 -24 -12 -7 -11 -5 -2 -5 -8 -5 -6 -5 -9 -12 -4 -6 -24
-0 -0 -0 -5 -1 -4 -8 -0 -34 -92 -102 -51 -7 -8 -40 -28 -10 -93 -65 -6 -74 -117 -83 -4 -38 -21 -3 -1 -16 -18 -8 -29 -1 -25 -11 -17 -9 -10 -15 -4 -4 -17 -18 -14 -6 -1 -11 -5 -8
-0 -0 -46 -28 -1 -24 -11 -0 -0 -15 -2 -13 -1 -8 -7 -15 -14 -44 -222 -76 -168 -13 -23 -8 -33 -29 -6 -1 -2 -28 -7 -3 -3 -10 -10 -17 -14 -39 -30 -21 -10 -4 -3 -5 -0 -17 -23 -25 -6
-12 -0 -9 -51 -2 -14 -39 -2 -0 -8 -2 -1 -8 -7 -12 -38 -28 -44 -26 -6 -78 -184 -15 -10 -36 -29 -21 -0 -3 -7 -4 -2 -6 -8 -22 -20 -45 -42 -27 -25 -9 -13 -4 -0 -1 -17 -11 -22 -40
-0 -8 -3 -0 -1 -0 -4 -20 -3 -20 -4 -1 -16 -23 -4 -2 -5 -13 -18 -8 -59 -94 -15 -19 -32 -31 -23 -1 -8 -2 -1 -5 -8 -7 -11 -53 -49 -65 -107 -6 -10 -6 -9 -3 -1 -7 -12 -7 -7
-0 -0 -0 -8 -7 -16 -17 -16 -5 -33 -31 -0 -80 -82 -18 -1 -0 -5 -19 -1 -10 -31 -99 -36 -23 -21 -11 -4 -14 -15 -4 -5 -9 -4 -3 -7 -54 -2 -4 -84 -30 -7 -3 -6 -6 -10 -7 -20 -17
-0 -1 -0 -0 -8 -3 -20 -0 -14 -57 -2 -1 -2 -5 -8 -2 -2 -5 -9 -21 -39 -10 -102 -234 -58 -9 -13 -8 -29 -11 -29 -4 -1 -4 -6 -9 -24 -27 -30 -16 -13 -7 -3 -4 -6 -1 -6 -16 -16
Wind_Speed
12 12 10 6 6 19 17 nan 17 14 nan nan nan nan nan 23 21 16 23 23 24 19 18 17 18 19 19 19 17 15 14 14 15 15 11 12 8 8 8 8 6 3 12 11 7 3 3 7 5
13 18 6 8 17 nan nan nan 9 nan nan 23 nan nan nan 27 29 21 22 21 22 22 18 18 17 17 17 16 17 13 11 8 12 14 11 12 10 8 12 11 7 7 9 5 3 4 4 3 3
16 20 5 2 nan nan 3 nan nan nan nan nan nan nan nan 23 18 11 19 20 20 24 26 22 17 16 15 17 17 13 13 15 11 14 12 11 11 7 3 3 3 7 4 2 3 3 1 3 4
7 3 3 4 nan nan 17 nan nan nan nan 21 nan nan 21 28 20 19 16 14 18 13 25 21 20 19 17 16 17 14 14 13 9 13 11 10 9 7 8 9 4 2 2 1 3 4 5 9 13
5 3 8 13 12 6 5 nan nan nan nan nan nan nan nan 27 23 19 17 12 18 19 20 24 23 22 21 18 18 18 14 14 15 17 14 12 11 17 19 8 3 5 3 3 5 7 9 15 13
3 1 10 nan 16 nan 24 nan nan nan nan nan nan nan nan 25 20 16 13 11 11 15 18 24 26 28 28 24 20 21 18 15 19 17 18 17 19 18 12 8 6 4 5 7 9 10 10 11 11
11 7 nan nan 11 10 21 17 nan nan nan nan nan nan nan 25 18 15 15 13 11 15 21 21 25 27 31 31 28 22 14 20 29 22 19 21 16 14 11 10 7 5 8 12 14 12 13 14 12
10 nan nan nan 15 18 17 18 nan nan nan nan nan nan nan nan 17 18 12 12 11 12 10 19 21 nan 25 25 30 30 26 28 nan nan nan 10 13 6 12 11 10 10 13 17 18 21 16 15 20
5 nan nan 11 nan nan 16 nan 13 nan nan nan nan nan nan nan 29 16 13 12 7 9 15 9 15 17 22 26 34 34 23 18 16 6 1 9 8 10 10 15 10 14 19 19 25 18 17 21 29
24 21 13 21 nan 16 2 nan nan nan nan 17 nan nan nan nan 25 17 14 12 10 8 13 5 10 2 2 8 11 18 8 12 14 13 19 18 17 15 17 14 12 19 22 25 27 17 21 15 25
10 7 13 nan 19 22 11 18 14 nan nan nan nan nan nan nan nan 20 16 12 12 9 10 10 9 9 13 5 15 20 11 nan 17 13 24 18 19 17 15 17 19 22 23 23 19 18 25 23 35
15 17 13 nan 23 nan nan nan 24 nan nan nan nan nan nan nan nan nan 20 nan 9 9 11 13 12 17 7 24 19 19 11 12 12 11 15 21 22 19 16 19 23 21 18 23 17 15 20 19 25
13 16 19 22 nan nan nan 25 5 16 nan nan nan nan nan nan nan nan 14 19 15 1 14 11 13 13 14 15 14 16 17 15 12 14 14 18 19 22 19 21 24 22 19 2 28 13 17 18 8
12 16 16 nan nan nan nan nan 26 nan 24 nan nan nan nan nan nan nan 11 19 17 2 8 11 9 2 2 12 13 11 18 19 18 17 20 25 18 20 21 27 23 29 28 23 8 13 16 13 5
23 23 19 nan nan nan nan nan nan nan 21 nan nan nan nan nan nan nan 14 15 14 5 8 5 9 5 1 3 3 nan 14 13 14 16 20 24 23 26 23 28 19 8 20 13 8 17 11 9 13
9 8 15 20 19 nan nan nan nan nan 19 18 9 nan nan nan nan nan 16 10 5 2 4 6 8 10 3 2 8 5 11 13 14 12 14 17 26 28 28 23 21 8 10 10 11 14 8 8 15
15 9 18 20 20 18 nan nan nan nan 10 11 nan nan nan nan nan 12 14 12 9 0 3 8 4 10 3 1 8 10 10 10 12 10 9 13 22 26 29 21 21 18 16 14 4 5 3 7 11
nan nan 9 21 13 13 nan nan 14 nan 12 6 12 nan nan nan 12 12 15 9 14 3 5 2 4 4 4 5 5 7 9 13 12 14 14 13 23 28 36 23 19 18 17 10 6 3 6 6 2
nan nan 24 20 19 13 18 19 16 nan nan 25 17 11 nan 7 6 15 8 12 15 13 8 4 7 5 5 1 0 3 5 11 11 14 12 15 22 24 27 23 17 16 14 11 6 8 10 4 5
nan nan 16 18 23 23 nan 5 8 18 18 16 15 5 21 16 14 17 4 14 10 11 7 4 5 1 4 4 0 5 8 12 13 10 10 14 19 21 23 22 18 14 15 12 11 10 6 5 11
nan nan 27 14 nan 14 28 18 nan 6 2 14 10 20 20 14 11 2 15 8 11 10 11 8 6 7 4 8 1 8 14 16 18 9 9 12 14 16 22 18 17 18 17 12 5 12 5 2 10
nan nan nan nan 20 7 nan 17 nan nan 9 19 16 19 26 21 12 2 11 11 5 11 10 12 10 10 5 7 4 4 10 14 17 14 10 9 11 12 12 14 12 17 16 16 14 4 5 4 6
nan nan nan nan 13 9 nan nan nan nan 4 13 14 19 27 16 27 nan 7 14 6 9 10 11 11 11 7 1 6 1 8 15 18 18 12 10 9 10 8 11 8 9 14 9 2 4 3 3 4
nan nan nan nan nan nan 9 6 18 30 39 24 20 19 17 nan 22 10 nan 11 13 14 8 14 12 11 6 5 3 2 11 13 13 10 13 10 8 9 10 11 11 9 10 7 7 3 3 1 2
nan nan 12 5 6 nan nan nan 23 nan nan 34 35 20 16 19 nan 30 18 8 18 5 12 14 16 14 7 8 4 4 3 4 7 7 11 11 10 9 10 11 13 12 10 8 9 7 4 4 7
nan nan 31 nan 14 nan 28 nan nan 38 37 38 31 22 17 14 11 20 25 8 23 7 17 16 18 16 13 9 7 9 4 5 3 6 11 15 12 6 12 11 12 11 12 9 10 7 6 9 8
nan nan nan nan nan 16 nan nan nan nan nan 32 23 29 23 15 12 3 7 19 27 21 10 16 21 15 15 13 9 9 4 4 3 5 10 16 18 11 11 11 9 14 10 7 13 10 8 15 8
nan nan nan nan nan 11 18 nan nan nan nan nan 24 27 13 13 17 3 6 16 16 21 23 14 22 17 15 15 12 9 4 5 6 9 11 11 17 27 15 8 16 13 14 11 13 12 12 12 13
nan nan nan nan nan 5 21 nan 20 26 nan nan 35 nan 35 16 11 8 7 9 13 19 24 17 12 12 11 11 17 14 10 6 5 10 11 15 17 nan 25 23 14 11 14 14 16 10 13 14 10
nan nan nan nan nan nan 27 15 nan nan nan 31 30 27 28 21 17 14 13 16 12 16 29 38 14 20 23 10 12 15 15 11 9 12 12 13 14 nan 16 18 8 14 12 14 17 13 13 19 14
Wind_Direction
93 74 78 96 270 132 74 nan 290 247 nan nan nan nan nan 234 234 250 234 259 260 248 251 252 249 241 234 234 240 254 259 263 245 240 236 254 265 272 287 279 316 321 4 323 332 17 353 355 -0
102 108 115 136 248 nan nan nan 305 nan nan 282 nan nan nan 260 259 259 254 234 240 250 262 256 248 243 238 234 244 245 254 276 243 236 241 252 257 263 270 270 296 357 338 342 13 358 4 351 56
90 90 170 239 nan nan 186 nan nan nan nan nan nan nan nan 265 251 276 272 253 228 242 237 246 254 243 243 245 249 244 264 261 226 234 234 249 251 266 269 217 280 337 333 351 36 17 358 102 65
53 85 170 112 nan nan 88 nan nan nan nan 291 nan nan 257 262 270 276 284 294 259 240 239 242 247 238 247 251 253 246 253 280 241 228 232 238 260 244 223 195 280 264 148 151 74 130 105 72 46
349 344 194 204 271 70 269 nan nan nan nan nan nan nan nan 277 285 293 262 223 248 244 243 238 243 239 244 251 247 241 258 246 253 238 236 246 260 221 213 211 203 163 136 108 122 116 99 64 46
257 219 196 nan 192 nan 237 nan nan nan nan nan nan nan nan 297 287 289 290 273 269 238 253 241 241 239 248 256 257 249 239 243 243 239 236 247 240 250 183 139 124 150 147 119 119 107 95 53 50
327 296 nan nan 242 155 212 206 nan nan nan nan nan nan nan 292 286 292 315 276 254 250 254 249 247 247 245 252 253 257 238 258 243 221 231 255 277 257 133 112 128 159 121 111 106 96 65 43 37
38 nan nan nan 218 229 196 222 nan nan nan nan nan nan nan nan 290 289 299 299 283 284 272 249 238 nan 245 244 242 249 252 254 nan nan nan 244 285 309 106 131 149 135 116 110 98 77 67 48 21
257 nan nan 251 nan nan 171 nan 189 nan nan nan nan nan nan nan 300 283 299 281 280 335 346 294 257 257 253 253 251 244 257 262 275 338 153 239 213 137 146 139 142 122 112 105 86 85 71 58 43
301 1 319 331 nan 329 119 nan nan nan nan 284 nan nan nan nan 308 289 296 305 333 27 343 299 269 333 77 15 173 186 227 222 191 175 199 172 147 148 137 143 129 114 109 94 83 71 58 87 72
357 316 312 nan 294 318 263 208 217 nan nan nan nan nan nan nan nan 310 298 319 330 340 302 324 338 359 38 8 67 98 101 nan 109 149 151 146 141 139 145 142 130 123 103 95 79 63 47 17 60
305 282 287 nan 297 nan nan nan 228 nan nan nan nan nan nan nan nan nan 298 nan 330 321 311 314 287 32 16 58 67 71 78 74 98 107 84 131 129 135 147 135 127 123 111 96 106 73 57 58 41
214 298 307 295 nan nan nan 191 185 259 nan nan nan nan nan nan nan nan 288 293 289 188 286 322 338 13 2 40 58 78 94 103 109 125 130 132 143 148 143 141 133 123 110 76 76 74 65 80 112
340 303 313 nan nan nan nan nan 179 nan 117 nan nan nan nan nan nan nan 284 302 289 232 270 287 325 11 25 29 47 73 95 111 119 143 154 151 148 147 144 136 141 168 136 120 125 87 68 65 51
312 314 306 nan nan nan nan nan nan nan 141 nan nan nan nan nan nan nan 310 310 314 170 264 324 301 297 147 75 327 nan 113 121 135 162 154 154 154 152 142 137 158 309 97 111 83 79 62 31 47
303 299 326 336 335 nan nan nan nan nan 185 177 280 nan nan nan nan nan 309 337 141 226 256 17 334 312 239 169 176 157 144 147 161 165 157 148 150 148 147 141 146 145 107 93 64 66 65 32 48
198 237 352 320 329 333 nan nan nan nan 175 176 nan nan nan nan nan 310 331 327 299 59 284 95 292 272 80 266 199 186 143 168 159 168 159 146 139 142 136 162 141 163 148 109 137 52 39 48 78
nan nan 53 308 350 323 nan nan 31 nan 287 169 118 nan nan nan 315 334 339 323 297 250 312 70 185 208 228 223 134 171 164 161 174 166 177 160 147 144 148 178 169 155 134 132 147 259 92 46 350
nan nan 57 318 329 310 5 18 1 nan nan 353 207 158 nan 296 336 332 337 332 335 314 298 252 242 221 300 41 177 182 172 172 174 192 176 166 155 157 157 160 164 141 135 173 134 99 78 21 316
nan nan 335 282 305 274 nan 323 86 342 353 359 328 334 256 241 266 177 184 322 335 329 330 333 287 149 88 70 309 168 210 201 184 201 185 163 163 168 157 170 160 161 171 181 166 121 99 28 329
nan nan 256 289 nan 312 354 289 nan 208 99 17 356 300 275 255 274 309 52 26 338 315 317 328 317 324 25 78 214 115 193 187 191 199 193 163 169 174 171 183 180 192 210 170 143 127 119 104 1
nan nan nan nan 308 333 nan 334 nan nan 48 347 12 335 332 346 301 71 136 333 265 302 307 312 315 315 8 80 13 116 163 190 186 167 180 195 174 187 186 197 196 239 242 139 122 200 131 91 288
nan nan nan nan 308 291 nan nan nan nan 322 6 15 358 330 322 321 nan 279 198 123 295 307 302 310 316 328 86 137 222 219 170 198 176 207 202 196 213 195 224 222 243 293 31 195 215 210 147 298
nan nan nan nan nan nan 39 294 290 315 309 126 72 12 340 nan 325 296 nan 239 169 186 231 314 311 305 319 300 191 181 275 42 172 199 219 195 229 228 231 248 234 238 250 277 263 16 270 201 192
nan nan 259 174 186 nan nan nan 300 nan nan 3 19 334 349 354 nan 265 230 289 263 129 15 307 312 305 308 296 289 307 309 286 184 206 186 201 231 251 272 261 258 249 247 244 279 269 260 263 286
nan nan 263 nan 23 nan 120 nan nan 331 315 300 298 298 281 358 7 278 303 305 296 19 56 321 305 307 307 303 299 284 303 250 184 185 188 206 222 217 284 283 283 267 272 272 276 265 284 268 294
nan nan nan nan nan 7 nan nan nan nan nan 316 308 313 323 353 354 317 219 291 294 336 17 312 303 308 308 308 294 286 300 279 216 201 212 217 192 201 273 282 274 283 277 271 282 275 259 285 296
nan nan nan nan nan 213 230 nan nan nan nan nan 297 234 282 322 324 17 269 266 289 319 235 306 303 311 313 305 296 279 261 264 199 213 232 224 226 243 157 214 259 266 277 271 276 269 273 269 271
nan nan nan nan nan 215 231 nan 294 283 nan nan 308 nan 70 302 288 269 258 247 283 312 279 250 268 285 291 301 299 293 272 272 251 248 250 248 223 nan 273 230 188 244 265 276 281 267 259 271 281
nan nan nan nan nan nan 328 317 nan nan nan 298 288 271 264 264 274 273 245 251 236 291 274 269 183 232 278 260 261 290 294 287 275 267 267 271 267 nan 256 288 303 241 247 271 282 281 277 297 296